TimeEST,TemperatureF,Dew PointF,Humidity,Sea Level PressureIn,VisibilityMPH,Wind Direction,Wind SpeedMPH,Gust SpeedMPH,PrecipitationIn,Events,Conditions,WindDirDegrees,DateUTC
12:15 AM,28.4,28.4,100,30.36,7.0,NE,3.5,-,N/A,,Clear,40,2013-01-27 05:15:00
12:35 AM,28.4,28.4,100,30.36,6.0,Calm,Calm,-,N/A,,Clear,0,2013-01-27 05:35:00
12:55 AM,28.4,28.4,100,30.37,5.0,Calm,Calm,-,N/A,,Clear,0,2013-01-27 05:55:00
1:15 AM,28.4,28.4,100,30.37,4.0,Calm,Calm,-,N/A,,Clear,0,2013-01-27 06:15:00
1:35 AM,28.4,28.4,100,30.38,5.0,Calm,Calm,-,N/A,Rain,Freezing Rain,0,2013-01-27 06:35:00
1:55 AM,28.4,28.4,100,30.39,4.0,Calm,Calm,-,N/A,,Clear,0,2013-01-27 06:55:00
2:15 AM,26.6,26.6,100,30.40,4.0,Calm,Calm,-,N/A,Rain,Freezing Rain,0,2013-01-27 07:15:00
2:35 AM,26.6,26.6,100,30.40,4.0,Calm,Calm,-,N/A,Rain,Freezing Rain,0,2013-01-27 07:35:00
3:15 AM,26.6,26.6,100,30.41,4.0,Calm,Calm,-,N/A,Rain,Freezing Rain,0,2013-01-27 08:15:00
3:35 AM,28.4,28.4,100,30.42,4.0,Calm,Calm,-,N/A,,Clear,0,2013-01-27 08:35:00
3:55 AM,26.6,26.6,100,30.42,4.0,Calm,Calm,-,N/A,,Clear,0,2013-01-27 08:55:00
4:15 AM,26.6,26.6,100,30.43,3.0,Calm,Calm,-,N/A,,Clear,0,2013-01-27 09:15:00
4:35 AM,26.6,26.6,100,30.42,3.0,Calm,Calm,-,N/A,,Clear,0,2013-01-27 09:35:00
4:55 AM,26.6,26.6,100,30.43,3.0,Calm,Calm,-,N/A,,Clear,0,2013-01-27 09:55:00
5:15 AM,26.6,26.6,100,30.44,3.0,Calm,Calm,-,N/A,,Clear,0,2013-01-27 10:15:00
5:35 AM,26.6,26.6,100,30.45,3.0,Calm,Calm,-,N/A,,Partly Cloudy,0,2013-01-27 10:35:00
5:55 AM,26.6,26.6,100,30.46,3.0,Calm,Calm,-,N/A,,Clear,0,2013-01-27 10:55:00
6:15 AM,26.6,26.6,100,30.47,2.5,Calm,Calm,-,N/A,,Clear,0,2013-01-27 11:15:00
6:35 AM,24.8,24.8,100,30.47,2.5,Calm,Calm,-,N/A,,Clear,0,2013-01-27 11:35:00
6:55 AM,24.8,24.8,100,30.47,3.0,Calm,Calm,-,N/A,,Clear,0,2013-01-27 11:55:00
7:15 AM,24.8,24.8,100,30.49,3.0,Calm,Calm,-,N/A,,Clear,0,2013-01-27 12:15:00
7:35 AM,24.8,24.8,100,30.50,2.0,Calm,Calm,-,N/A,,Clear,0,2013-01-27 12:35:00
7:55 AM,24.8,24.8,100,30.51,2.5,Calm,Calm,-,N/A,Rain,Freezing Rain,0,2013-01-27 12:55:00
8:15 AM,24.8,24.8,100,30.52,2.5,Calm,Calm,-,N/A,Rain,Freezing Rain,0,2013-01-27 13:15:00
8:35 AM,26.6,26.6,100,30.53,3.0,Calm,Calm,-,N/A,Rain,Freezing Rain,0,2013-01-27 13:35:00
8:55 AM,28.4,28.4,100,30.54,4.0,Calm,Calm,-,N/A,Rain,Freezing Rain,0,2013-01-27 13:55:00
9:15 AM,30.2,30.2,100,30.54,7.0,Calm,Calm,-,N/A,,Clear,0,2013-01-27 14:15:00
9:35 AM,32.0,28.4,87,30.55,10.0,NE,4.6,-,N/A,Rain,Light Rain,40,2013-01-27 14:35:00
9:55 AM,32.0,26.6,80,30.55,10.0,NE,4.6,-,N/A,Rain,Light Rain,40,2013-01-27 14:55:00
10:15 AM,35.6,26.6,70,30.55,10.0,NE,4.6,-,N/A,Rain,Light Rain,50,2013-01-27 15:15:00
10:35 AM,37.4,26.6,65,30.55,10.0,Calm,Calm,-,N/A,Rain,Light Rain,0,2013-01-27 15:35:00
10:55 AM,39.2,24.8,56,30.56,10.0,NE,4.6,-,N/A,,Clear,50,2013-01-27 15:55:00
11:15 AM,39.2,24.8,56,30.56,10.0,East,4.6,-,N/A,,Clear,90,2013-01-27 16:15:00
11:35 AM,41.0,24.8,53,30.56,10.0,Calm,Calm,-,N/A,,Clear,0,2013-01-27 16:35:00
12:15 PM,41.0,24.8,53,30.54,10.0,NE,6.9,-,N/A,,Clear,50,2013-01-27 17:15:00
12:35 PM,41.0,24.8,53,30.54,10.0,NE,4.6,-,N/A,,Clear,40,2013-01-27 17:35:00
12:55 PM,41.0,24.8,53,30.54,10.0,Calm,Calm,-,N/A,,Clear,0,2013-01-27 17:55:00
1:15 PM,42.8,24.8,49,30.53,10.0,Calm,Calm,-,N/A,,Clear,0,2013-01-27 18:15:00
1:35 PM,44.6,24.8,46,30.51,10.0,Calm,Calm,-,N/A,,Clear,0,2013-01-27 18:35:00
1:55 PM,44.6,24.8,46,30.50,10.0,NE,4.6,-,N/A,,Clear,40,2013-01-27 18:55:00
2:15 PM,46.4,24.8,43,30.50,10.0,NE,4.6,-,N/A,,Clear,40,2013-01-27 19:15:00
2:35 PM,46.4,26.6,46,30.49,10.0,NNE,4.6,-,N/A,,Clear,20,2013-01-27 19:35:00
2:55 PM,46.4,24.8,43,30.49,10.0,NE,3.5,-,N/A,,Clear,40,2013-01-27 19:55:00
3:15 PM,46.4,24.8,43,30.48,10.0,ENE,5.8,-,N/A,,Clear,60,2013-01-27 20:15:00
3:35 PM,48.2,24.8,40,30.47,10.0,NE,4.6,-,N/A,,Clear,50,2013-01-27 20:35:00
3:55 PM,46.4,24.8,43,30.48,10.0,Calm,Calm,-,N/A,,Clear,0,2013-01-27 20:55:00
4:15 PM,46.4,24.8,43,30.48,10.0,ENE,3.5,-,N/A,,Clear,60,2013-01-27 21:15:00
4:35 PM,46.4,24.8,43,30.48,10.0,Calm,Calm,-,N/A,,Clear,0,2013-01-27 21:35:00
4:55 PM,46.4,26.6,46,30.49,10.0,Calm,Calm,-,N/A,,Clear,0,2013-01-27 21:55:00
5:15 PM,44.6,26.6,49,30.49,10.0,Calm,Calm,-,N/A,,Clear,0,2013-01-27 22:15:00
5:35 PM,44.6,26.6,49,30.49,10.0,Calm,Calm,-,N/A,,Clear,0,2013-01-27 22:35:00
5:55 PM,41.0,28.4,61,30.49,10.0,Calm,Calm,-,N/A,,Clear,0,2013-01-27 22:55:00
6:15 PM,39.2,28.4,65,30.49,10.0,Calm,Calm,-,N/A,,Clear,0,2013-01-27 23:15:00
6:35 PM,37.4,28.4,70,30.51,10.0,Calm,Calm,-,N/A,,Partly Cloudy,0,2013-01-27 23:35:00
6:55 PM,37.4,28.4,70,30.51,10.0,Calm,Calm,-,N/A,Rain,Light Rain,0,2013-01-27 23:55:00
7:15 PM,37.4,28.4,70,30.51,10.0,Calm,Calm,-,N/A,,Clear,0,2013-01-28 00:15:00
7:35 PM,35.6,28.4,75,30.51,10.0,Calm,Calm,-,N/A,,Clear,0,2013-01-28 00:35:00
7:55 PM,37.4,28.4,70,30.51,10.0,Calm,Calm,-,N/A,,Clear,0,2013-01-28 00:55:00
8:15 PM,39.2,26.6,61,30.51,10.0,ESE,3.5,-,N/A,,Clear,110,2013-01-28 01:15:00
8:35 PM,39.2,26.6,61,30.51,10.0,East,3.5,-,N/A,,Clear,100,2013-01-28 01:35:00
8:55 PM,39.2,26.6,61,30.51,10.0,Calm,Calm,-,N/A,,Clear,0,2013-01-28 01:55:00
9:15 PM,37.4,26.6,65,30.51,10.0,Calm,Calm,-,N/A,,Clear,0,2013-01-28 02:15:00
9:35 PM,35.6,26.6,70,30.51,10.0,Calm,Calm,-,N/A,,Clear,0,2013-01-28 02:35:00
9:55 PM,35.6,26.6,70,30.51,10.0,Calm,Calm,-,N/A,,Clear,0,2013-01-28 02:55:00
10:15 PM,37.4,26.6,65,30.51,10.0,Calm,Calm,-,N/A,,Clear,0,2013-01-28 03:15:00
10:35 PM,37.4,26.6,65,30.51,10.0,Calm,Calm,-,N/A,,Clear,0,2013-01-28 03:35:00
10:55 PM,35.6,28.4,75,30.51,10.0,Calm,Calm,-,N/A,,Clear,0,2013-01-28 03:55:00
11:15 PM,35.6,28.4,75,30.50,10.0,Calm,Calm,-,N/A,,Clear,0,2013-01-28 04:15:00
11:35 PM,35.6,26.6,70,30.49,10.0,Calm,Calm,-,N/A,,Clear,0,2013-01-28 04:35:00
11:55 PM,35.6,26.6,70,30.49,10.0,Calm,Calm,-,N/A,,Clear,0,2013-01-28 04:55:00